Location: Ebersheim
(48.3033°N, 7.4991°E)
Time: 17:09:42
(UTC+00:00)

STARLINK-74 - Pass Details

Date: 27 February 2020
Orbit: 529 x 530 km, 53.0° (Epoch: 28 March)

Event Time Altitude Azimuth Distance (km) Brightness Sun altitude
Rises 19:06:57 0° 288° (WNW) 2,668 8.7 -20.1°
Reaches altitude 10° 19:09:14 10° 295° (WNW) 1,778 7.3 -20.5°
Maximum altitude 19:13:07 44° 8° (N) 738 4.2 -21.2°
Enters shadow 19:13:32 43° 27° (NNE) 757 4.1 -21.2°
